DW4776 Weather Reports


time (UTC)temp
C
wind
direction
speed
KPH
gust
KPH
rain 1hr
cm
rain 24hr
cm
rain mn
cm
humidity
%
barometer
mb
20260505021540 7 2 22.5 32.2 0.00 0.00 0.00 39 1016.0
20260505020035 8 13 19.3 35.4 0.00 0.00 0.00 36 1015.8
20260505014558 9 6 22.5 37.0 0.00 0.00 0.00 33 1015.7
20260505013038 10 5 24.1 37.0 0.00 0.00 0.00 30 1015.3
20260505011539 10 8 29.0 46.7 0.00 0.00 0.00 27 1015.3
20260505010036 10 343 25.7 40.2 0.00 0.00 0.00 23 1015.3
20260505004541 11 29 24.1 41.8 0.00 0.00 0.00 23 1015.3
20260505003037 11 2 25.7 45.1 0.00 0.00 0.00 22 1015.2
20260505001537 11 310 32.2 48.3 0.00 0.00 0.00 19 1015.3
20260505000054 11 300 35.4 54.7 0.00 0.00 0.00 20 1015.3
20260504234547 11 326 35.4 46.7 0.00 0.00 0.00 19 1015.2
20260504233055 11 306 32.2 48.3 0.00 0.00 0.00 21 1015.3
20260504231538 11 336 30.6 49.9 0.00 0.00 0.00 23 1015.3
20260504230039 11 343 35.4 53.1 0.00 0.00 0.00 23 1015.2
20260504224540 11 323 29.0 49.9 0.00 0.00 0.00 23 1015.2
20260504223055 11 324 35.4 51.5 0.00 0.00 0.00 23 1015.1
20260504221538 11 308 41.8 53.1 0.00 0.00 0.00 24 1015.3
20260504220034 11 335 37.0 53.1 0.00 0.00 0.00 28 1015.3
20260504214536 11 333 38.6 56.3 0.00 0.00 0.00 28 1015.2
20260504213051 11 332 33.8 54.7 0.00 0.00 0.00 28 1015.4
20260504211538 11 316 33.8 56.3 0.00 0.00 0.00 27 1015.4
20260504210041 11 317 29.0 51.5 0.00 0.00 0.00 29 1015.4
20260504204545 11 334 40.2 59.5 0.00 0.00 0.00 29 1015.4
20260504203044 11 320 37.0 51.5 0.00 0.00 0.00 31 1015.4
20260504201539 10 313 35.4 51.5 0.00 0.00 0.00 33 1015.5
20260504200038 10 337 32.2 54.7 0.00 0.00 0.00 33 1015.5
20260504194535 10 342 33.8 46.7 0.00 0.00 0.00 33 1015.4
20260504193037 10 309 35.4 48.3 0.00 0.00 0.00 34 1015.5
20260504191537 10 318 33.8 54.7 0.00 0.00 0.00 34 1015.5
20260504190044 10 314 30.6 49.9 0.00 0.00 0.00 36 1015.5
20260504184538 10 330 27.4 53.1 0.00 0.00 0.00 37 1015.5
20260504183037 10 332 37.0 51.5 0.00 0.00 0.00 36 1015.5
20260504181543 10 315 27.4 40.2 0.00 0.00 0.00 38 1015.5
20260504180043 10 338 27.4 43.5 0.00 0.00 0.00 38 1015.7
20260504174538 10 293 22.5 41.8 0.00 0.00 0.00 38 1015.4
20260504173037 10 310 29.0 46.7 0.00 0.00 0.00 39 1015.7
20260504171545 10 328 25.7 37.0 0.00 0.00 0.00 39 1015.7
20260504081541 7 15 22.5 32.2 0.00 0.00 0.00 60 1015.3
20260504044543 12 18 27.4 43.5 0.00 0.00 0.00 39 1011.2
20260504043037 13 28 27.4 40.2 0.00 0.00 0.00 37 1010.6
20260504041535 13 31 17.7 32.2 0.00 0.00 0.00 36 1009.8
20260504040058 13 5 17.7 27.4 0.00 0.00 0.00 35 1009.3
20260504034550 14 12 20.9 32.2 0.00 0.00 0.00 34 1009.0
20260504033037 14 8 22.5 32.2 0.00 0.00 0.00 35 1008.7
20260504031536 14 2 19.3 32.2 0.00 0.00 0.00 36 1008.4
20260504030055 15 17 24.1 33.8 0.00 0.00 0.00 34 1008.2
20260504024538 15 31 22.5 32.2 0.00 0.00 0.00 33 1008.0
20260504023037 16 12 24.1 33.8 0.00 0.00 0.00 30 1007.9